• Processing (Info)

  • MPEC 2016-W11 : 2016 VR5

    The following Minor Planet Electronic Circular may be linked-to from your own Web pages, but must not otherwise be redistributed electronically.

    A form allowing access to any MPEC is at the bottom of this page.


    Read MPEC 2016-W10 Read MPEC 2016-W12


    M.P.E.C. 2016-W11                                Issued 2016 Nov. 18, 03:22 UT
    
         The Minor Planet Electronic Circulars contain information on unusual
             minor planets and routine data on comets.  They are published
        on behalf of Division F of the International Astronomical Union by the
              Minor Planet Center, Smithsonian Astrophysical Observatory,
                              Cambridge, MA 02138, U.S.A.
    
                 Prepared using the Tamkin Foundation Computer Network
    
                                  MPC@CFA.HARVARD.EDU
                URL https://www.minorplanetcenter.net/    ISSN 1523-6714
    
                                       2016 VR5
    
    Observations:
         K16V05R* C2016 11 06.49906 09 06 14.48 +18 20 53.5          20.6 VqEW011G96
         K16V05R  C2016 11 06.50339 09 06 14.68 +18 20 45.3          20.4 VqEW011G96
         K16V05R  C2016 11 06.50774 09 06 14.86 +18 20 34.6          20.2 VqEW011G96
         K16V05R  C2016 11 06.51208 09 06 15.02 +18 20 25.9          19.9 VqEW011G96
         K16V05R KC2016 11 11.47725 09 09 35.89 +15 22 21.7          21.1 RoEW011291
         K16V05R KC2016 11 11.47920 09 09 35.92 +15 22 17.8          21.2 RoEW011291
         K16V05R KC2016 11 11.48117 09 09 35.99 +15 22 13.2          21.4 RoEW011291
         K16V05R KC2016 11 12.36694 09 10 04.89 +14 50 14.0                oEW011291
         K16V05R KC2016 11 12.37088 09 10 05.02 +14 50 05.7          21.2 RoEW011291
         K16V05R KC2016 11 12.37480 09 10 05.12 +14 49 57.0          21.2 RoEW011291
         K16V05R  C2016 11 13.43700209 10 36.38 +14 11 32.9          21.4 VtEW011H01
         K16V05R  C2016 11 13.43995209 10 36.45 +14 11 26.5          21.6 VtEW011H01
         K16V05R  C2016 11 13.45067109 10 36.72 +14 11 03.3          21.5 VtEW011H01
         K16V05R  C2016 11 13.45539009 10 36.86 +14 10 53.0          21.5 VtEW011H01
    
    Observer details:
    291 LPL/Spacewatch II.  Observers T. H. Bressi, R. A. Mastaler.  1.8-m f/2.7
        reflector + CCD.
    G96 Mt. Lemmon Survey.  Observer R. A. Kowalski.  Measurers E. J. Christensen,
        D. C. Fuls, A. R. Gibbs, A. D. Grauer, J. A. Johnson, R. A. Kowalski,
        S. M. Larson, G. J. Leonard, R. G. Matheny, R. L. Seaman, F. C. Shelly.
        1.5-m reflector + 10K CCD.
    H01 Magdalena Ridge Observatory, Socorro.  Observers W. H. Ryan, E. V. Ryan.
        Measurer W. H. Ryan.  2.4-m f/8.9 reflector + CCD.
    
    Orbital elements:
    2016 VR5                                                 Earth MOID = 0.1311 AU
    Epoch 2017 Feb. 16.0 TT = JDT 2457800.5                 MPC
    M 123.77714              (2000.0)            P               Q
    n   0.68254917     Peri.   92.21885     +0.92760848     +0.19435382
    a   1.2775564      Node   256.69575     -0.29504607     +0.90496019
    e   0.2773560      Incl.   19.13594     +0.22910765     +0.37851505
    P   1.44           H   19.9           G   0.15           U   8
    Residuals in seconds of arc
    161106 G96  0.3-  0.1-    161111 291  0.4-  0.3+    161113 H01  0.5-  0.2+
    161106 G96  0.0   0.9+    161111 291  0.2-  0.0     161113 H01  0.4-  0.1+
    161106 G96  0.0   0.5-    161112 291 (3.0-  0.4+)   161113 H01  0.1-  0.1+
    161106 G96  0.3-  0.1+    161112 291 (2.7-  0.6+)   161113 H01  0.3+  0.0
    161111 291  0.0   0.0     161112 291 (2.9-  0.3+)
    
    Ephemeris:
    2016 VR5                 a,e,i = 1.28, 0.28, 19                  q = 0.9232
    Date    TT    R. A. (2000) Decl.     Delta      r     Elong.  Phase     V
    2016 10 19    08 44 41.5 +29 07 46   0.6055  1.0736    80.2    66.1    21.3
    ...
    2016 11 03    09 03 13.3 +20 25 18   0.5836  1.1374    88.5    60.7    21.2
    ...
    2016 11 11    09 09 19.1 +15 39 40   0.5670  1.1724    93.7    57.4    21.1
    ...
    2016 11 17    09 11 57.0 +12 02 15   0.5533  1.1988    98.1    54.7    21.0
    2016 11 18    09 12 12.9 +11 25 47   0.5509  1.2031    98.8    54.3    21.0
    2016 11 19    09 12 25.6 +10 49 15   0.5485  1.2075    99.6    53.8    21.0
    ...
    2016 11 25    09 12 32.3 +07 09 05   0.5343  1.2337   104.4    50.8    20.9
    ...
    2016 12 03    09 09 18.0 +02 15 19   0.5161  1.2681   111.3    46.4    20.7
    ...
    2016 12 18    08 51 38.1 -06 30 01   0.4921  1.3301   125.3    37.2    20.5
    
    A. U. Tomatic                (C) Copyright 2016 MPC           M.P.E.C. 2016-W11
    

    Read MPEC 2016-W10 Read MPEC 2016-W12


    MPEC number:

    Enter an MPEC number in one of the following forms:

    • 1997-B01 (the full form)
    • J97B01 (the packed version of the full form)
    • B01 (the abbreviated form)